Location: Columbia
(38.9520°N, 92.3340°W)
Time: 17:10:22
(UTC-05:00)

Meteor 1-4 Rocket - Visible Passes

Search period start: 27 March 2015 00:00
Search period end: 06 April 2015 00:00
Orbit: 463 x 525 km, 81.2° (Epoch: 26 March)

Date Brightness Start Highest point End Pass type
(mag) Time Alt. Az. Time Alt. Az. Time Alt. Az.
27 Mar 2.6 05:58:23 10° SSW 06:01:50 52° W 06:05:20 10° N visible
28 Mar 2.3 05:37:36 18° S 05:40:08 83° W 05:43:44 10° N visible
29 Mar 2.9 05:16:48 28° SSE 05:18:27 62° E 05:22:00 10° NNE visible
30 Mar 3.7 04:55:53 33° SE 04:56:46 40° E 05:00:10 10° NNE visible
30 Mar 4.7 06:31:51 10° WNW 06:32:32 10° WNW 06:33:00 10° WNW visible
31 Mar 4.4 04:34:52 26° E 04:35:06 26° E 04:38:11 10° NE visible
31 Mar 4.3 06:09:28 13° W 06:10:38 15° WNW 06:12:43 10° NW visible
01 Apr 5.2 04:13:46 18° E 04:13:46 18° E 04:16:01 10° NE visible
01 Apr 3.8 05:48:21 21° W 05:48:46 21° WNW 05:51:35 10° NNW visible
02 Apr 5.7 03:52:35 12° ENE 03:52:35 12° ENE 03:53:26 10° ENE visible
02 Apr 3.4 05:27:10 31° WNW 05:27:10 31° WNW 05:30:10 10° NNW visible
03 Apr 3.3 05:05:55 39° NW 05:05:55 39° NW 05:08:37 10° N visible
04 Apr 3.7 04:44:37 36° N 04:44:37 36° N 04:46:56 10° N visible
05 Apr 4.4 04:23:16 28° NNE 04:23:16 28° NNE 04:25:09 10° NNE visible
